Retour au catalogue

AEPEX

ActifRadio amateurSSO
NORAD 68506·PAYLOAD·🇺🇸 United States

Lancé Mar 30, 2026 depuis Vandenberg Space Force Base

Loading…

Prochains Passages (prochaines 24 heures)

TLE

FraisSource: Space-Track

Époque: Sep 14, 2026, 14:45 UTC

1 68506U 26067CU  26257.61499174  .00006111  00000-0  28516-3 0  9993
2 68506  97.4607 214.9866 0004595 115.3577 244.8135 15.20198800 25400

Suivez AEPEX en temps réel avec AllMySat

Download on the App Store